カタログに戻る

SL-12 R/B(2)

運用中GEO
NORAD 15139·ROCKET BODY·🇷🇺 Russia

打ち上げ Mar 16, 1984 から Baikonur Cosmodrome

Loading…

TLE

最新Source: Space-Track

元期: Sep 14, 2026, 13:30 UTC

1 15139U 84028F   26257.56285558 -.00000109  00000-0  00000-0 0  9998
2 15139   6.8001 300.5091 0018353  53.7519  72.1544  1.01430404125361

AllMySatでSL-12 R/B(2)をリアルタイム追跡

Download on the App Store